When you browse on this site, cookies collect data to enhance your experience and personalize the content and advertising you see.
Visit our Privacy Policy to learn more. By continuing to use the site, you agree to this use of cookies and data.
  • In Latvia
  • List of Countries
  • For 7 days
  • Water Temperature
  • Weather Map
  • Weather Widgets
  • user-avatar
    Login

    Hourly Weather Elbasan

    Today, 15 November, Friday

    Time Temperature Precipitation Wind Pressure Humidity
    00:00 +12°C° 0 mm 1 mps 732 mmHg 84%
    01:00 +12°C° 0 mm 2 mps 732 mmHg 84%
    02:00 +12°C° 0 mm 1 mps 732 mmHg 82%
    03:00 +12°C° 0 mm 1 mps 732 mmHg 81%
    04:00 +12°C° 0 mm 1 mps 732 mmHg 79%
    05:00 +12°C° 0 mm 2 mps 733 mmHg 78%
    06:00 +12°C° 0 mm 2 mps 733 mmHg 77%
    07:00 +12°C° 0 mm 2 mps 734 mmHg 76%
    08:00 +14°C° 0 mm 2 mps 734 mmHg 70%
    09:00 +16°C° 0 mm 2 mps 734 mmHg 64%
    10:00 +18°C° 0 mm 2 mps 734 mmHg 59%
    11:00 +18°C° 0 mm 2 mps 734 mmHg 58%
    12:00 +19°C° 0 mm 2 mps 735 mmHg 57%
    13:00 +20°C° 0 mm 2 mps 735 mmHg 55%
    14:00 +20°C° 0 mm 1 mps 735 mmHg 61%
    15:00 +19°C° 0 mm 1 mps 735 mmHg 66%
    16:00 +18°C° 0 mm 1 mps 735 mmHg 72%
    17:00 +16°C° 0 mm 1 mps 735 mmHg 74%
    18:00 +15°C° 0 mm 1 mps 735 mmHg 77%
    19:00 +15°C° 0 mm 2 mps 736 mmHg 80%
    20:00 +14°C° 0 mm 2 mps 736 mmHg 81%
    21:00 +14°C° 0 mm 2 mps 736 mmHg 81%
    22:00 +14°C° 0 mm 2 mps 737 mmHg 82%
    23:00 +14°C° 0 mm 2 mps 737 mmHg 82%

    Tomorrow, 16 November, Saturday

    Time Temperature Precipitation Wind Pressure Humidity
    00:00 +14°C° 0 mm 2 mps 737 mmHg 81%
    01:00 +13°C° 0 mm 2 mps 737 mmHg 81%
    02:00 +13°C° 0 mm 2 mps 737 mmHg 81%
    03:00 +13°C° 0 mm 2 mps 737 mmHg 80%
    04:00 +13°C° 0 mm 2 mps 737 mmHg 80%
    05:00 +13°C° 0 mm 2 mps 737 mmHg 80%
    06:00 +13°C° 0 mm 2 mps 737 mmHg 80%
    07:00 +13°C° 0 mm 2 mps 737 mmHg 80%
    08:00 +14°C° 0 mm 2 mps 737 mmHg 75%
    09:00 +16°C° 0 mm 2 mps 738 mmHg 69%
    10:00 +18°C° 0 mm 2 mps 738 mmHg 64%
    11:00 +18°C° 0 mm 2 mps 738 mmHg 60%
    12:00 +19°C° 0 mm 2 mps 737 mmHg 56%
    13:00 +20°C° 0 mm 2 mps 737 mmHg 53%
    14:00 +20°C° 0 mm 1 mps 737 mmHg 58%
    15:00 +19°C° 0 mm 1 mps 736 mmHg 62%
    16:00 +18°C° 0 mm 1 mps 736 mmHg 67%
    17:00 +16°C° 0 mm 1 mps 736 mmHg 69%
    18:00 +15°C° 0 mm 2 mps 736 mmHg 71%
    19:00 +15°C° 0 mm 2 mps 736 mmHg 73%
    20:00 +14°C° 0 mm 2 mps 736 mmHg 74%
    21:00 +14°C° 0 mm 2 mps 736 mmHg 75%
    22:00 +14°C° 0 mm 2 mps 736 mmHg 76%
    23:00 +14°C° 0 mm 2 mps 736 mmHg 76%

    Day after tomorrow, 17 November, Sunday

    Time Temperature Precipitation Wind Pressure Humidity
    00:00 +14°C° 0 mm 2 mps 736 mmHg 77%
    01:00 +13°C° 0 mm 2 mps 736 mmHg 77%
    02:00 +13°C° 0 mm 2 mps 735 mmHg 77%
    03:00 +13°C° 0 mm 2 mps 735 mmHg 78%
    04:00 +13°C° 0 mm 2 mps 735 mmHg 78%
    05:00 +13°C° 0 mm 2 mps 735 mmHg 78%
    06:00 +12°C° 0 mm 3 mps 735 mmHg 78%
    07:00 +12°C° 0 mm 3 mps 735 mmHg 78%
    08:00 +13°C° 0 mm 3 mps 735 mmHg 73%
    09:00 +16°C° 0 mm 3 mps 735 mmHg 69%
    10:00 +17°C° 0 mm 3 mps 735 mmHg 65%
    11:00 +18°C° 0 mm 3 mps 734 mmHg 61%
    12:00 +18°C° 0 mm 3 mps 734 mmHg 57%
    13:00 +19°C° 0 mm 3 mps 733 mmHg 54%
    14:00 +18°C° 0 mm 2 mps 733 mmHg 57%
    15:00 +17°C° 0 mm 2 mps 733 mmHg 61%
    16:00 +17°C° 0 mm 2 mps 733 mmHg 65%
    17:00 +16°C° 0 mm 2 mps 733 mmHg 67%
    18:00 +15°C° 0 mm 2 mps 733 mmHg 69%
    19:00 +14°C° 0 mm 3 mps 733 mmHg 71%
    20:00 +14°C° 0 mm 3 mps 733 mmHg 72%
    21:00 +14°C° 0 mm 3 mps 733 mmHg 73%
    22:00 +14°C° 0 mm 3 mps 734 mmHg 73%
    23:00 +14°C° 3 mm 2 mps 734 mmHg 81%

    18 November, Monday

    Time Temperature Precipitation Wind Pressure Humidity
    00:00 +14°C° 3 mm 2 mps 734 mmHg 88%
    01:00 +13°C° 3 mm 2 mps 734 mmHg 96%
    02:00 +13°C° 2.1 mm 2 mps 734 mmHg 94%
    03:00 +13°C° 2.1 mm 1 mps 735 mmHg 92%
    04:00 +13°C° 2.1 mm 1 mps 735 mmHg 90%
    05:00 +13°C° 0 mm 1 mps 735 mmHg 89%
    06:00 +12°C° 0 mm 1 mps 735 mmHg 88%
    07:00 +12°C° 0 mm 1 mps 736 mmHg 86%
    08:00 +14°C° 0 mm 1 mps 736 mmHg 80%
    09:00 +15°C° 0 mm 1 mps 736 mmHg 73%
    10:00 +18°C° 0 mm 1 mps 737 mmHg 67%
    11:00 +18°C° 0 mm 1 mps 737 mmHg 64%
    12:00 +19°C° 0 mm 1 mps 737 mmHg 61%
    13:00 +19°C° 0 mm 1 mps 737 mmHg 58%
    14:00 +18°C° 0 mm 1 mps 737 mmHg 64%
    15:00 +16°C° 0 mm 1 mps 736 mmHg 71%
    16:00 +15°C° 0 mm 1 mps 736 mmHg 77%
    17:00 +15°C° 0 mm 1 mps 737 mmHg 78%
    18:00 +14°C° 0 mm 1 mps 737 mmHg 80%
    19:00 +14°C° 0 mm 1 mps 737 mmHg 81%
    20:00 +14°C° 0 mm 1 mps 737 mmHg 80%
    21:00 +13°C° 0 mm 1 mps 737 mmHg 80%
    22:00 +13°C° 0 mm 1 mps 737 mmHg 79%
    23:00 +13°C° 0 mm 1 mps 737 mmHg 80%

    19 November, Tuesday

    Time Temperature Precipitation Wind Pressure Humidity
    00:00 +13°C° 0 mm 1 mps 737 mmHg 80%
    01:00 +13°C° 0 mm 1 mps 737 mmHg 81%
    02:00 +13°C° 0 mm 1 mps 737 mmHg 81%
    03:00 +12°C° 0 mm 1 mps 737 mmHg 82%
    04:00 +12°C° 0 mm 1 mps 737 mmHg 82%
    05:00 +12°C° 0 mm 1 mps 737 mmHg 82%
    06:00 +12°C° 0 mm 1 mps 737 mmHg 82%
    07:00 +13°C° 0 mm 1 mps 737 mmHg 82%
    08:00 +14°C° 0.1 mm 1 mps 737 mmHg 78%
    09:00 +16°C° 0.1 mm 1 mps 737 mmHg 74%
    10:00 +18°C° 0.1 mm 1 mps 737 mmHg 69%
    11:00 +18°C° 0.3 mm 1 mps 737 mmHg 68%
    12:00 +19°C° 0.3 mm 1 mps 736 mmHg 66%
    13:00 +19°C° 0.3 mm 1 mps 736 mmHg 65%
    14:00 +18°C° 0.5 mm 1 mps 736 mmHg 71%
    15:00 +16°C° 0.5 mm 1 mps 735 mmHg 76%
    16:00 +15°C° 0.5 mm 1 mps 735 mmHg 82%
    17:00 +15°C° 0.4 mm 1 mps 735 mmHg 84%
    18:00 +14°C° 0.4 mm 1 mps 735 mmHg 86%
    19:00 +14°C° 0.4 mm 1 mps 735 mmHg 87%
    20:00 +14°C° 0.4 mm 1 mps 735 mmHg 88%
    21:00 +14°C° 0.4 mm 1 mps 735 mmHg 88%
    22:00 +14°C° 0.4 mm 1 mps 735 mmHg 88%
    23:00 +14°C° 0.7 mm 1 mps 735 mmHg 88%

    20 November, Wednesday

    Time Temperature Precipitation Wind Pressure Humidity
    00:00 +14°C° 0.7 mm 1 mps 735 mmHg 88%
    01:00 +14°C° 0.7 mm 1 mps 735 mmHg 88%
    02:00 +13°C° 0.3 mm 1 mps 734 mmHg 87%
    03:00 +13°C° 0.3 mm 1 mps 734 mmHg 86%
    04:00 +13°C° 0.3 mm 1 mps 734 mmHg 85%
    05:00 +13°C° 0.1 mm 1 mps 734 mmHg 85%
    06:00 +12°C° 0.1 mm 1 mps 734 mmHg 85%
    07:00 +12°C° 0.1 mm 1 mps 735 mmHg 85%
    08:00 +13°C° 0.1 mm 1 mps 735 mmHg 80%
    09:00 +14°C° 0.1 mm 1 mps 736 mmHg 76%
    10:00 +15°C° 0.1 mm 2 mps 736 mmHg 72%
    11:00 +15°C° 0.5 mm 2 mps 736 mmHg 73%
    12:00 +15°C° 0.5 mm 2 mps 736 mmHg 74%
    13:00 +15°C° 0.5 mm 2 mps 735 mmHg 74%
    14:00 +15°C° 0.5 mm 2 mps 735 mmHg 79%
    15:00 +14°C° 0.5 mm 1 mps 735 mmHg 83%
    16:00 +13°C° 0.5 mm 1 mps 735 mmHg 88%
    17:00 +13°C° 0 mm 1 mps 736 mmHg 88%
    18:00 +12°C° 0 mm 1 mps 736 mmHg 89%
    19:00 +12°C° 0 mm 1 mps 736 mmHg 89%
    20:00 +11°C° 0 mm 0 mps 736 mmHg 89%
    21:00 +11°C° 0 mm 0 mps 737 mmHg 88%
    22:00 +11°C° 0 mm 0 mps 737 mmHg 88%
    23:00 +12°C° 0 mm 1 mps 737 mmHg 88%
    Show more